Grand Rapids, MN

12:15 PM CDT on April 26, 2017 (GMT -0500)
Grand Rapids-Itasca County-Newstrom Field

Weather History for KGPZ - March, 2014

Change the Weather History Date:

Friday, March 14, 2014

  Actual Average Record
Temperature  
Mean Temperature 29 °F -  
Max Temperature 39 °F 36 °F 60 °F (2012)
Min Temperature 17 °F 15 °F -17 °F (1932)
Degree Days  
Heating Degree Days 36    
Moisture  
Dew Point 21 °F    
Average Humidity 73    
Maximum Humidity 81    
Minimum Humidity 63    
Precipitation  
Precipitation 0.00 in - - ()
Sea Level Pressure  
Sea Level Pressure 29.61 in    
Wind  
Wind Speed 14 mph (NW)    
Max Wind Speed 26 mph    
Max Gust Speed 32 mph    
Visibility 10 miles    
Events      
Averages and records for this station are not official NWS values.
T = Trace of Precipitation, MM = Missing Value Source: NWS Daily Summary

Daily Weather History Graph

Daily Weather History Graph

Search for Another Location

Airport or City:

Trip Planner

Search our weather history database for the weather conditions in past years. The results will help you decide how hot, cold, wet, or windy it might be!

Date:

Astronomy

Mar. 14, 2014 Rise Set
Actual Time 7:28 AM CDT 7:18 PM CDT
Civil Twilight 6:58 AM CDT 7:48 PM CDT
Nautical Twilight 6:22 AM CDT 8:24 PM CDT
Astronomical Twilight 5:46 AM CDT 9:00 PM CDT
Moon 5:36 PM CDT (3/14) 6:15 AM CDT (3/14)
Length of Visible Light 12h 50m
Length of Day
11h 49m
Waxing Gibbous, 96% of the Moon is Illuminated
Mar 14
Waxing Gibbous
Mar 16
Full
Mar 23
Last Quarter
Mar 30
New
Apr 7
First Quarter

Hourly Weather History & Observations

Time (CDT) Temp. Windchill Dew Point Humidity Pressure Visibility Wind Dir Wind Speed Gust Speed Precip Events Conditions
12:15 AM 39.2 °F 33.6 °F 30.2 °F 70% 29.42 in 10.0 mi West 8.1 mph - N/A   Clear
12:35 AM 39.2 °F 33.0 °F 30.2 °F 70% 29.43 in 10.0 mi WNW 9.2 mph - N/A   Clear
12:55 AM 37.4 °F 29.8 °F 30.2 °F 75% 29.43 in 10.0 mi WNW 11.5 mph - N/A   Mostly Cloudy
1:15 AM 37.4 °F 30.3 °F 30.2 °F 75% 29.43 in 10.0 mi WNW 10.4 mph - N/A   Partly Cloudy
1:35 AM 37.4 °F 30.3 °F 30.2 °F 75% 29.43 in 10.0 mi WNW 10.4 mph - N/A   Clear
1:55 AM 37.4 °F 30.3 °F 30.2 °F 75% 29.43 in 10.0 mi WNW 10.4 mph 20.7 mph N/A   Clear
2:15 AM 35.6 °F 27.1 °F 30.2 °F 81% 29.44 in 10.0 mi WNW 12.7 mph 18.4 mph N/A   Clear
2:35 AM 35.6 °F 28.0 °F 30.2 °F 81% 29.44 in 10.0 mi WNW 10.4 mph - N/A   Clear
2:55 AM 35.6 °F 28.6 °F 28.4 °F 75% 29.44 in 10.0 mi WNW 9.2 mph - N/A   Clear
3:15 AM 35.6 °F 28.0 °F 28.4 °F 75% 29.43 in 10.0 mi WNW 10.4 mph - N/A   Clear
3:35 AM 33.8 °F 26.4 °F 28.4 °F 81% 29.44 in 10.0 mi WNW 9.2 mph - N/A   Clear
3:55 AM 33.8 °F 25.3 °F 28.4 °F 81% 29.44 in 10.0 mi WNW 11.5 mph - N/A   Clear
4:15 AM 33.8 °F 23.9 °F 28.4 °F 81% 29.43 in 10.0 mi WNW 15.0 mph - N/A   Partly Cloudy
4:35 AM 33.8 °F 26.4 °F 28.4 °F 81% 29.43 in 10.0 mi WNW 9.2 mph - N/A   Partly Cloudy
4:55 AM 33.8 °F 25.8 °F 26.6 °F 75% 29.43 in 10.0 mi WNW 10.4 mph 18.4 mph N/A   Partly Cloudy
5:15 AM 32.0 °F 23.0 °F 26.6 °F 80% 29.43 in 10.0 mi WNW 11.5 mph - N/A   Mostly Cloudy
5:35 AM 33.8 °F 25.3 °F 26.6 °F 75% 29.43 in 10.0 mi West 11.5 mph 18.4 mph N/A   Overcast
5:55 AM 33.8 °F 23.9 °F 26.6 °F 75% 29.44 in 10.0 mi WNW 15.0 mph 20.7 mph N/A   Overcast
6:15 AM 33.8 °F 23.9 °F 28.4 °F 81% 29.44 in 10.0 mi WNW 15.0 mph 21.9 mph N/A   Overcast
6:35 AM 33.8 °F 22.8 °F 28.4 °F 81% 29.45 in 10.0 mi WNW 18.4 mph 25.3 mph N/A   Overcast
6:55 AM 33.8 °F 23.9 °F 28.4 °F 81% 29.45 in 10.0 mi WNW 15.0 mph - N/A   Overcast
7:15 AM 33.8 °F 24.8 °F 28.4 °F 81% 29.46 in 10.0 mi WNW 12.7 mph 21.9 mph N/A   Overcast
7:35 AM 33.8 °F 24.3 °F 28.4 °F 81% 29.46 in 10.0 mi NW 13.8 mph 19.6 mph N/A   Overcast
7:55 AM 33.8 °F 23.2 °F 28.4 °F 81% 29.47 in 10.0 mi NW 17.3 mph 28.8 mph N/A   Overcast
8:15 AM 33.8 °F 23.5 °F 28.4 °F 81% 29.48 in 10.0 mi WNW 16.1 mph 24.2 mph N/A   Overcast
8:35 AM 33.8 °F 22.5 °F 26.6 °F 75% 29.49 in 10.0 mi NW 19.6 mph - N/A   Overcast
8:55 AM 33.8 °F 23.9 °F 26.6 °F 75% 29.49 in 10.0 mi NW 15.0 mph 26.5 mph N/A   Overcast
9:15 AM 33.8 °F 23.2 °F 26.6 °F 75% 29.50 in 10.0 mi NW 17.3 mph 24.2 mph N/A   Overcast
9:35 AM 33.8 °F 23.2 °F 26.6 °F 75% 29.51 in 10.0 mi NW 17.3 mph 23.0 mph N/A   Overcast
9:55 AM 33.8 °F 23.9 °F 26.6 °F 75% 29.52 in 10.0 mi WNW 15.0 mph 20.7 mph N/A   Overcast
10:15 AM 32.0 °F 20.8 °F 26.6 °F 80% 29.52 in 10.0 mi NW 17.3 mph 25.3 mph N/A   Overcast
10:35 AM 32.0 °F 20.5 °F 26.6 °F 80% 29.53 in 10.0 mi WNW 18.4 mph 26.5 mph N/A   Overcast
10:55 AM 32.0 °F 20.5 °F 24.8 °F 75% 29.53 in 10.0 mi WNW 18.4 mph 21.9 mph N/A   Overcast
11:15 AM 32.0 °F 20.8 °F 23.0 °F 69% 29.54 in 10.0 mi WNW 17.3 mph 27.6 mph N/A   Overcast
11:35 AM 30.2 °F 15.9 °F 21.2 °F 69% 29.55 in 10.0 mi WNW 26.5 mph 32.2 mph N/A   Overcast
11:55 AM 30.2 °F 18.5 °F 21.2 °F 69% 29.56 in 10.0 mi WNW 17.3 mph 27.6 mph N/A   Overcast
12:15 PM 28.4 °F 15.4 °F 21.2 °F 74% 29.57 in 10.0 mi WNW 19.6 mph 25.3 mph N/A   Overcast
12:35 PM 28.4 °F 16.2 °F 19.4 °F 69% 29.58 in 10.0 mi NW 17.3 mph 27.6 mph N/A   Overcast
12:55 PM 26.6 °F 12.7 °F 17.6 °F 69% 29.60 in 10.0 mi WNW 20.7 mph 27.6 mph N/A   Overcast
1:15 PM 24.8 °F 10.3 °F 17.6 °F 74% 29.61 in 10.0 mi NW 20.7 mph 27.6 mph N/A   Overcast
1:35 PM 24.8 °F 13.4 °F 15.8 °F 69% 29.62 in 10.0 mi WNW 12.7 mph 25.3 mph N/A   Overcast
1:55 PM 24.8 °F 11.5 °F 15.8 °F 69% 29.63 in 10.0 mi WNW 17.3 mph 26.5 mph N/A   Overcast
2:15 PM 24.8 °F 10.7 °F 15.8 °F 69% 29.64 in 10.0 mi WNW 19.6 mph 26.5 mph N/A   Overcast
2:35 PM 23.0 °F 10.1 °F 15.8 °F 74% 29.65 in 10.0 mi WNW 15.0 mph 25.3 mph N/A   Overcast
2:55 PM 24.8 °F 10.3 °F 15.8 °F 69% 29.66 in 10.0 mi NNW 20.7 mph 28.8 mph N/A   Overcast
3:15 PM 23.0 °F 7.6 °F 15.8 °F 74% 29.66 in 10.0 mi NW 21.9 mph 28.8 mph N/A   Overcast
3:35 PM 23.0 °F 8.3 °F 15.8 °F 74% 29.68 in 10.0 mi NW 19.6 mph 29.9 mph N/A   Overcast
3:55 PM 23.0 °F 8.3 °F 15.8 °F 74% 29.68 in 10.0 mi NNW 19.6 mph 26.5 mph N/A   Overcast
4:15 PM 24.8 °F 9.6 °F 15.8 °F 69% 29.69 in 10.0 mi NNW 23.0 mph 29.9 mph N/A   Overcast
4:35 PM 24.8 °F 10.0 °F 15.8 °F 69% 29.70 in 10.0 mi NNW 21.9 mph 26.5 mph N/A   Overcast
4:55 PM 24.8 °F 11.5 °F 15.8 °F 69% 29.71 in 10.0 mi NNW 17.3 mph 21.9 mph N/A   Overcast
5:15 PM 24.8 °F 11.5 °F 14.0 °F 64% 29.72 in 10.0 mi NW 17.3 mph 26.5 mph N/A   Overcast
5:35 PM 24.8 °F 10.3 °F 14.0 °F 64% 29.73 in 10.0 mi NW 20.7 mph 26.5 mph N/A   Overcast
5:55 PM 23.0 °F 8.7 °F 14.0 °F 68% 29.74 in 10.0 mi NNW 18.4 mph 26.5 mph N/A   Overcast
6:15 PM 23.0 °F 8.3 °F 14.0 °F 68% 29.76 in 10.0 mi NW 19.6 mph 27.6 mph N/A   Overcast
6:35 PM 23.0 °F 7.2 °F 12.2 °F 63% 29.77 in 10.0 mi NW 23.0 mph 27.6 mph N/A   Overcast
6:55 PM 23.0 °F 8.7 °F 12.2 °F 63% 29.78 in 10.0 mi NW 18.4 mph 25.3 mph N/A   Overcast
7:15 PM 21.2 °F 7.8 °F 12.2 °F 68% 29.80 in 10.0 mi NW 15.0 mph 20.7 mph N/A   Overcast
7:35 PM 21.2 °F 7.8 °F 12.2 °F 68% 29.82 in 10.0 mi NW 15.0 mph 20.7 mph N/A   Overcast
7:55 PM 21.2 °F 5.6 °F 12.2 °F 68% 29.83 in 10.0 mi NW 20.7 mph - N/A   Overcast
8:15 PM 21.2 °F 6.4 °F 12.2 °F 68% 29.84 in 10.0 mi NNW 18.4 mph 25.3 mph N/A   Overcast
8:35 PM 21.2 °F 8.9 °F 14.0 °F 74% 29.85 in 10.0 mi NNW 12.7 mph - N/A   Overcast
8:55 PM 21.2 °F 6.0 °F 12.2 °F 68% 29.86 in 10.0 mi NNW 19.6 mph 27.6 mph N/A   Overcast
9:15 PM 21.2 °F 6.0 °F 10.4 °F 63% 29.87 in 10.0 mi NNW 19.6 mph 24.2 mph N/A   Overcast
9:35 PM 19.4 °F 3.6 °F 10.4 °F 68% 29.88 in 10.0 mi NW 19.6 mph 23.0 mph N/A   Overcast
9:55 PM 19.4 °F 3.2 °F 10.4 °F 68% 29.89 in 10.0 mi NNW 20.7 mph 26.5 mph N/A   Overcast
10:15 PM 19.4 °F 4.5 °F 10.4 °F 68% 29.90 in 10.0 mi NNW 17.3 mph 20.7 mph N/A   Overcast
10:35 PM 19.4 °F 4.5 °F 10.4 °F 68% 29.90 in 10.0 mi NNW 17.3 mph - N/A   Overcast
10:55 PM 19.4 °F 7.2 °F 10.4 °F 68% 29.91 in 10.0 mi NW 11.5 mph 19.6 mph N/A   Overcast
11:15 PM 19.4 °F 7.9 °F 10.4 °F 68% 29.91 in 10.0 mi NW 10.4 mph - N/A   Overcast
11:35 PM 19.4 °F 8.6 °F 8.6 °F 63% 29.92 in 10.0 mi NW 9.2 mph - N/A   Partly Cloudy
11:55 PM 17.6 °F 7.3 °F 8.6 °F 68% 29.92 in 10.0 mi WNW 8.1 mph - N/A   Clear